Hourly Weather Barlad

Today, 6 May, Thursday

Time Temperature Precipitation Wind Pressure Humidity
00:00 +10°C° 0 mm 5 mps 744 mmHg 76%
01:00 +9°C° 0 mm 5 mps 744 mmHg 77%
02:00 +10°C° 0 mm 4 mps 743 mmHg 77%
03:00 +10°C° 0 mm 3 mps 743 mmHg 79%
04:00 +10°C° 0 mm 2 mps 744 mmHg 81%
05:00 +10°C° 0 mm 2 mps 744 mmHg 83%
06:00 +12°C° 0 mm 2 mps 744 mmHg 79%
07:00 +13°C° 0 mm 3 mps 744 mmHg 75%
08:00 +14°C° 0 mm 3 mps 745 mmHg 72%
09:00 +15°C° 0.1 mm 4 mps 745 mmHg 69%
10:00 +16°C° 0.1 mm 5 mps 746 mmHg 65%
11:00 +17°C° 0.1 mm 7 mps 746 mmHg 62%
12:00 +17°C° 0.1 mm 6 mps 747 mmHg 59%
13:00 +17°C° 0.1 mm 5 mps 747 mmHg 57%
14:00 +17°C° 0.1 mm 5 mps 748 mmHg 55%
15:00 +18°C° 0 mm 4 mps 748 mmHg 55%
16:00 +18°C° 0 mm 3 mps 748 mmHg 56%
17:00 +17°C° 0 mm 2 mps 748 mmHg 56%
18:00 +16°C° 0 mm 2 mps 748 mmHg 60%
19:00 +15°C° 0 mm 1 mps 748 mmHg 64%
20:00 +14°C° 0 mm 1 mps 748 mmHg 68%
21:00 +13°C° 0 mm 1 mps 749 mmHg 70%
22:00 +13°C° 0 mm 1 mps 749 mmHg 72%
23:00 +12°C° 0 mm 1 mps 749 mmHg 74%

Tomorrow, 7 May, Friday

Time Temperature Precipitation Wind Pressure Humidity
00:00 +12°C° 0 mm 2 mps 749 mmHg 77%
01:00 +10°C° 0 mm 2 mps 749 mmHg 80%
02:00 +10°C° 0 mm 2 mps 748 mmHg 83%
03:00 +10°C° 0 mm 2 mps 748 mmHg 85%
04:00 +10°C° 0 mm 2 mps 748 mmHg 88%
05:00 +10°C° 0 mm 2 mps 748 mmHg 90%
06:00 +11°C° 0 mm 3 mps 748 mmHg 87%
07:00 +13°C° 0 mm 4 mps 748 mmHg 84%
08:00 +14°C° 0 mm 5 mps 748 mmHg 81%
09:00 +16°C° 0 mm 5 mps 748 mmHg 73%
10:00 +19°C° 0 mm 6 mps 747 mmHg 65%
11:00 +20°C° 0 mm 7 mps 747 mmHg 56%
12:00 +21°C° 0 mm 7 mps 746 mmHg 55%
13:00 +21°C° 0 mm 8 mps 745 mmHg 54%
14:00 +22°C° 0 mm 8 mps 745 mmHg 52%
15:00 +22°C° 0 mm 7 mps 744 mmHg 53%
16:00 +22°C° 0 mm 7 mps 744 mmHg 54%
17:00 +22°C° 0 mm 6 mps 743 mmHg 55%
18:00 +21°C° 0 mm 5 mps 743 mmHg 58%
19:00 +19°C° 0 mm 4 mps 743 mmHg 60%
20:00 +18°C° 0 mm 3 mps 744 mmHg 63%
21:00 +18°C° 0 mm 2 mps 744 mmHg 64%
22:00 +17°C° 0 mm 2 mps 744 mmHg 65%
23:00 +16°C° 0 mm 2 mps 744 mmHg 66%

Day after tomorrow, 8 May, Saturday

Time Temperature Precipitation Wind Pressure Humidity
00:00 +16°C° 0 mm 2 mps 744 mmHg 67%
01:00 +16°C° 0 mm 2 mps 744 mmHg 67%
02:00 +16°C° 0 mm 3 mps 744 mmHg 68%
03:00 +13°C° 1 mm 3 mps 745 mmHg 75%
04:00 +12°C° 1 mm 4 mps 746 mmHg 82%
05:00 +10°C° 1 mm 5 mps 747 mmHg 89%
06:00 +9°C° 0.1 mm 6 mps 748 mmHg 82%
07:00 +9°C° 0.1 mm 7 mps 749 mmHg 75%
08:00 +7°C° 0.1 mm 8 mps 750 mmHg 68%
09:00 +9°C° 0 mm 8 mps 750 mmHg 65%
10:00 +9°C° 0 mm 7 mps 751 mmHg 61%
11:00 +10°C° 0 mm 7 mps 751 mmHg 58%
12:00 +11°C° 0 mm 6 mps 751 mmHg 54%
13:00 +13°C° 0 mm 6 mps 751 mmHg 51%
14:00 +13°C° 0 mm 5 mps 751 mmHg 47%
15:00 +13°C° 0 mm 5 mps 751 mmHg 47%
16:00 +13°C° 0 mm 6 mps 752 mmHg 47%
17:00 +13°C° 0 mm 6 mps 752 mmHg 47%
18:00 +12°C° 0 mm 5 mps 752 mmHg 51%
19:00 +11°C° 0 mm 4 mps 753 mmHg 54%
20:00 +10°C° 0 mm 3 mps 754 mmHg 58%
21:00 +9°C° 0 mm 3 mps 754 mmHg 62%
22:00 +8°C° 0 mm 3 mps 755 mmHg 66%
23:00 +7°C° 0 mm 2 mps 755 mmHg 70%

9 May, Sunday

Time Temperature Precipitation Wind Pressure Humidity
00:00 +7°C° 0 mm 2 mps 756 mmHg 73%
01:00 +6°C° 0 mm 2 mps 756 mmHg 75%
02:00 +6°C° 0 mm 2 mps 756 mmHg 78%
03:00 +6°C° 0 mm 2 mps 756 mmHg 78%
04:00 +6°C° 0 mm 1 mps 757 mmHg 79%
05:00 +6°C° 0 mm 1 mps 757 mmHg 79%
06:00 +8°C° 0 mm 1 mps 757 mmHg 71%
07:00 +10°C° 0 mm 1 mps 758 mmHg 63%
08:00 +12°C° 0 mm 1 mps 758 mmHg 54%
09:00 +13°C° 0 mm 1 mps 758 mmHg 50%
10:00 +15°C° 0 mm 1 mps 758 mmHg 45%
11:00 +16°C° 0 mm 1 mps 758 mmHg 40%
12:00 +17°C° 0 mm 2 mps 758 mmHg 39%
13:00 +17°C° 0 mm 2 mps 758 mmHg 37%
14:00 +18°C° 0 mm 3 mps 757 mmHg 35%
15:00 +18°C° 0 mm 3 mps 757 mmHg 36%
16:00 +18°C° 0 mm 3 mps 757 mmHg 37%
17:00 +18°C° 0 mm 3 mps 757 mmHg 38%
18:00 +16°C° 0 mm 3 mps 757 mmHg 43%
19:00 +14°C° 0 mm 3 mps 757 mmHg 49%
20:00 +12°C° 0 mm 3 mps 757 mmHg 55%
21:00 +11°C° 0 mm 3 mps 757 mmHg 56%
22:00 +11°C° 0 mm 3 mps 758 mmHg 58%
23:00 +10°C° 0 mm 4 mps 758 mmHg 59%

10 May, Monday

Time Temperature Precipitation Wind Pressure Humidity
00:00 +8°C° 0 mm 4 mps 758 mmHg 64%
01:00 +8°C° 0 mm 4 mps 758 mmHg 69%
02:00 +7°C° 0 mm 4 mps 758 mmHg 74%
03:00 +7°C° 0 mm 4 mps 757 mmHg 75%
04:00 +8°C° 0 mm 3 mps 757 mmHg 76%
05:00 +7°C° 0 mm 3 mps 757 mmHg 77%
06:00 +8°C° 0 mm 4 mps 758 mmHg 70%
07:00 +11°C° 0 mm 4 mps 758 mmHg 62%
08:00 +13°C° 0 mm 5 mps 758 mmHg 54%
09:00 +14°C° 0 mm 5 mps 758 mmHg 49%
10:00 +16°C° 0 mm 5 mps 758 mmHg 45%
11:00 +17°C° 0 mm 6 mps 758 mmHg 41%
12:00 +19°C° 0 mm 5 mps 758 mmHg 39%
13:00 +19°C° 0 mm 5 mps 757 mmHg 38%
14:00 +20°C° 0 mm 5 mps 757 mmHg 37%
15:00 +20°C° 0 mm 5 mps 756 mmHg 38%
16:00 +20°C° 0 mm 4 mps 756 mmHg 39%
17:00 +19°C° 0 mm 4 mps 756 mmHg 40%
18:00 +18°C° 0 mm 3 mps 756 mmHg 45%
19:00 +16°C° 0 mm 3 mps 756 mmHg 51%
20:00 +14°C° 0 mm 2 mps 756 mmHg 56%
21:00 +13°C° 0 mm 2 mps 756 mmHg 58%
22:00 +12°C° 0 mm 2 mps 756 mmHg 61%
23:00 +10°C° 0 mm 2 mps 756 mmHg 63%

11 May, Tuesday

Time Temperature Precipitation Wind Pressure Humidity
00:00 +10°C° 0 mm 2 mps 756 mmHg 64%
01:00 +9°C° 0 mm 2 mps 756 mmHg 65%
02:00 +8°C° 0 mm 2 mps 756 mmHg 67%
03:00 +9°C° 0 mm 1 mps 755 mmHg 67%
04:00 +9°C° 0 mm 1 mps 755 mmHg 67%
05:00 +9°C° 0 mm 1 mps 755 mmHg 67%
06:00 +11°C° 0 mm 1 mps 755 mmHg 62%
07:00 +13°C° 0 mm 1 mps 755 mmHg 56%
08:00 +15°C° 0 mm 2 mps 755 mmHg 51%
09:00 +16°C° 0 mm 2 mps 755 mmHg 48%
10:00 +17°C° 0 mm 2 mps 755 mmHg 45%
11:00 +19°C° 0 mm 2 mps 755 mmHg 41%
12:00 +20°C° 0 mm 2 mps 754 mmHg 40%
13:00 +20°C° 0 mm 2 mps 754 mmHg 38%
14:00 +21°C° 0 mm 2 mps 753 mmHg 36%
15:00 +21°C° 0 mm 2 mps 753 mmHg 38%
16:00 +21°C° 0 mm 2 mps 753 mmHg 39%
17:00 +21°C° 0 mm 2 mps 753 mmHg 40%
18:00 +21°C° 0 mm 1 mps 752 mmHg 46%
19:00 +19°C° 0 mm 1 mps 752 mmHg 51%
20:00 +16°C° 0 mm 1 mps 752 mmHg 57%
21:00 +16°C° 0 mm 1 mps 752 mmHg 59%
22:00 +15°C° 0 mm 1 mps 752 mmHg 61%
23:00 +15°C° 0 mm 2 mps 752 mmHg 63%
Show more